Starlink 11302

operational
NORAD ID: 61204 Int'l Des: 2024-171 Owner: SPXS Country: US Constellation: starlink
LEOCIRCULAR

关于 Starlink 11302

正在加载描述...

实时位置

正在加载3D地球...

即将过境

高度历史

Altitude vs Time

uPlot chart will show altitude changes over time

两行轨道根数

1 61204U 24171E 26035.22771775 -.00000208 00000-0 31471-5 0 9994
2 61204 53.1594 341.1815 0001340 86.6636 273.4535 15.69713060 79146
Epoch: Feb 4, 2026 • Age: 8 hours

当前状态

高度 364.5 km
速度 7.69 km/s
星下点 -16.43°S, 171.96°W
发射日期 Sep 20, 2024
运行时间 1.3 years
类型 internet

技术详情

分类 Payload
质量 960.00 kg
干质量 910.00 kg
总质量 960.00 kg
长度 0.30 m
直径 4.10 m
跨度 29.00 m
形状 Box + pan
制造商 SPXS
平台类型 Starlink V2MD
阶段状态 In Orbit
所有者/国家 SPXS/US

大型星座

Loading constellations...